Thedford, NE

4:56 AM CDT on September 23, 2017 (GMT -0500)
Thedford

Weather History for KTIF - January, 2013

Change the Weather History Date:

Saturday, January 12, 2013

  Actual Average (KANW) Record (KANW)
Temperature  
Mean Temperature 6 °F -  
Max Temperature 13 °F 33 °F 51 °F (2001)
Min Temperature -2 °F 12 °F -11 °F (1997)
Degree Days  
Heating Degree Days 60    
Moisture  
Dew Point 1 °F    
Average Humidity 76    
Maximum Humidity 83    
Minimum Humidity 67    
Precipitation  
Precipitation 0.00 in - - ()
Sea Level Pressure  
Sea Level Pressure 29.99 in    
Wind  
Wind Speed 12 mph (NW)    
Max Wind Speed 23 mph    
Max Gust Speed 30 mph    
Visibility 10 miles    
Events Snow    
Averages and records for this station are not official NWS values.
T = Trace of Precipitation, MM = Missing Value Source: NWS Daily Summary

Daily Weather History Graph

Daily Weather History Graph

Search for Another Location

Airport or City:

Trip Planner

Search our weather history database for the weather conditions in past years. The results will help you decide how hot, cold, wet, or windy it might be!

Date:

Astronomy

Jan. 12, 2013 Rise Set
Actual Time 8:08 AM CST 5:33 PM CST
Civil Twilight 7:37 AM CST 6:04 PM CST
Nautical Twilight 7:03 AM CST 6:38 PM CST
Astronomical Twilight 6:29 AM CST 7:12 PM CST
Moon 8:27 AM CST (1/12) 7:06 PM CST (1/12)
Length of Visible Light 10h 26m
Length of Day
9h 24m
New Moon, 1% of the Moon is Illuminated
Jan 12
New Moon
Jan 18
First Quarter
Jan 26
Full
Feb 3
Last Quarter
Feb 10
New

Hourly Weather History & Observations

Time (CST) Temp. Windchill Dew Point Humidity Pressure Visibility Wind Dir Wind Speed Gust Speed Precip Events Conditions
12:15 AM 11.5 °F -3.4 °F 5.9 °F 78% 29.80 in 10.0 mi WNW 12.7 mph 16.1 mph N/A   Scattered Clouds
12:35 AM 11.1 °F -3.2 °F 5.5 °F 78% 29.81 in 10.0 mi NW 11.5 mph 16.1 mph N/A   Clear
12:55 AM 10.4 °F -2.4 °F 5.0 °F 79% 29.82 in 10.0 mi WNW 9.2 mph - N/A   Clear
1:15 AM 9.5 °F -1.5 °F 4.6 °F 81% 29.84 in 10.0 mi West 6.9 mph - N/A   Clear
1:35 AM 10.0 °F -3.7 °F 5.0 °F 80% 29.84 in 10.0 mi WNW 10.4 mph - N/A   Mostly Cloudy
1:55 AM 9.3 °F -2.8 °F 5.0 °F 83% 29.85 in 3.0 mi West 8.1 mph - N/A Snow Light Snow
2:15 AM 8.2 °F -0.3 °F 4.1 °F 83% 29.85 in 10.0 mi West 4.6 mph - N/A   Scattered Clouds
2:35 AM 9.1 °F -5.6 °F 3.9 °F 79% 29.86 in 10.0 mi WNW 11.5 mph 17.3 mph N/A   Clear
2:55 AM 9.0 °F -4.2 °F 3.2 °F 77% 29.87 in 10.0 mi West 9.2 mph - N/A   Clear
3:15 AM 8.6 °F -6.3 °F 2.8 °F 77% 29.88 in 10.0 mi West 11.5 mph - N/A   Clear
3:35 AM 8.4 °F -6.5 °F 2.3 °F 76% 29.88 in 10.0 mi WNW 11.5 mph 20.7 mph N/A   Clear
3:55 AM 8.4 °F -5.7 °F 2.3 °F 76% 29.89 in 10.0 mi WNW 10.4 mph - N/A   Scattered Clouds
4:15 AM 8.2 °F -7.5 °F 1.9 °F 76% 29.89 in 10.0 mi WNW 12.7 mph - N/A   Clear
4:35 AM 7.9 °F -8.0 °F 0.9 °F 73% 29.90 in 10.0 mi WNW 12.7 mph 20.7 mph N/A   Clear
4:55 AM 7.2 °F -8.1 °F 0.7 °F 75% 29.91 in 10.0 mi West 11.5 mph - N/A   Mostly Cloudy
5:15 AM 7.2 °F -8.9 °F 0.7 °F 75% 29.91 in 10.0 mi West 12.7 mph - N/A   Overcast
5:35 AM 6.8 °F -7.8 °F 0.5 °F 75% 29.90 in 10.0 mi WNW 10.4 mph 16.1 mph N/A   Mostly Cloudy
5:55 AM 7.5 °F -9.1 °F 1.2 °F 75% 29.90 in 10.0 mi WNW 13.8 mph 18.4 mph N/A   Mostly Cloudy
6:15 AM 8.1 °F -9.0 °F 2.1 °F 77% 29.91 in 10.0 mi WNW 15.0 mph 21.9 mph N/A   Overcast
6:35 AM 7.7 °F -8.2 °F 2.3 °F 79% 29.91 in 10.0 mi NW 12.7 mph 19.6 mph N/A   Overcast
6:55 AM 7.7 °F -4.8 °F 2.8 °F 81% 29.92 in 7.0 mi NW 8.1 mph - N/A   Mostly Cloudy
7:15 AM 7.7 °F -8.2 °F 2.1 °F 78% 29.94 in 7.0 mi NW 12.7 mph 17.3 mph N/A   Mostly Cloudy
7:35 AM 6.6 °F -9.5 °F 0.3 °F 75% 29.94 in 10.0 mi NW 12.7 mph 18.4 mph N/A   Scattered Clouds
7:55 AM 5.9 °F -8.9 °F -0.6 °F 75% 29.96 in 10.0 mi NW 10.4 mph - N/A   Scattered Clouds
8:15 AM 5.5 °F -10.2 °F -0.6 °F 76% 29.98 in 10.0 mi NW 11.5 mph 17.3 mph N/A   Clear
8:35 AM 5.7 °F -9.1 °F -0.6 °F 75% 29.98 in 10.0 mi WNW 10.4 mph - N/A   Clear
8:55 AM 6.6 °F -10.9 °F -0.4 °F 73% 29.98 in 10.0 mi WNW 15.0 mph 21.9 mph N/A   Clear
9:15 AM 7.3 °F -8.6 °F -0.2 °F 71% 30.00 in 10.0 mi WNW 12.7 mph 23.0 mph N/A   Clear
9:35 AM 8.1 °F -8.4 °F 0.5 °F 71% 30.01 in 10.0 mi NW 13.8 mph 19.6 mph N/A   Clear
9:55 AM 8.6 °F -10.0 °F 0.7 °F 70% 30.01 in 10.0 mi NW 18.4 mph 27.6 mph N/A   Clear
10:15 AM 9.5 °F -7.8 °F 1.6 °F 70% 30.02 in 10.0 mi NW 16.1 mph 26.5 mph N/A   Clear
10:35 AM 10.0 °F -8.6 °F 2.5 °F 72% 30.02 in 10.0 mi NW 19.6 mph 25.3 mph N/A   Scattered Clouds
10:55 AM 10.2 °F -9.3 °F 2.8 °F 72% 30.03 in 7.0 mi NW 21.9 mph 27.6 mph N/A   Mostly Cloudy
11:15 AM 10.9 °F -7.9 °F 3.7 °F 73% 30.03 in 10.0 mi NNW 20.7 mph 29.9 mph N/A   Overcast
11:55 AM 12.0 °F -4.0 °F 4.5 °F 72% 30.03 in 5.0 mi WNW 15.0 mph 21.9 mph N/A   Haze
12:15 PM 13.3 °F -4.4 °F 4.5 °F 68% 30.03 in 10.0 mi WNW 19.6 mph 25.3 mph N/A   Overcast
12:55 PM 12.9 °F -3.4 °F 4.3 °F 68% 30.03 in 10.0 mi NW 16.1 mph 26.5 mph N/A   Overcast
1:35 PM 12.2 °F -5.8 °F 3.2 °F 67% 30.02 in 10.0 mi NW 19.6 mph 26.5 mph N/A   Scattered Clouds
1:55 PM 12.7 °F -4.1 °F 3.9 °F 68% 30.02 in 10.0 mi NNW 17.3 mph 26.5 mph N/A   Scattered Clouds
2:15 PM 13.1 °F -4.2 °F 4.6 °F 69% 30.01 in 10.0 mi NNW 18.4 mph 27.6 mph N/A   Mostly Cloudy
2:35 PM 12.7 °F -6.0 °F 4.1 °F 68% 30.02 in 10.0 mi NNW 21.9 mph 28.8 mph N/A   Mostly Cloudy
2:55 PM 12.9 °F -6.1 °F 4.5 °F 69% 30.02 in 10.0 mi NW 23.0 mph 29.9 mph N/A   Scattered Clouds
3:15 PM 12.9 °F -4.4 °F 4.6 °F 70% 30.02 in 10.0 mi NW 18.4 mph 25.3 mph N/A   Scattered Clouds
3:35 PM 12.7 °F -6.0 °F 4.1 °F 68% 30.02 in 10.0 mi NW 21.9 mph 29.9 mph N/A   Scattered Clouds
3:55 PM 11.7 °F -6.5 °F 3.0 °F 68% 30.03 in 10.0 mi NNW 19.6 mph 28.8 mph N/A   Scattered Clouds
4:15 PM 11.5 °F -5.8 °F 3.4 °F 70% 30.03 in 10.0 mi NW 17.3 mph - N/A   Mostly Cloudy
4:35 PM 11.3 °F -7.0 °F 3.0 °F 69% 30.03 in 10.0 mi NNW 19.6 mph 28.8 mph N/A   Scattered Clouds
4:55 PM 10.9 °F -6.5 °F 3.0 °F 70% 30.02 in 10.0 mi NNW 17.3 mph 25.3 mph N/A   Clear
5:15 PM 10.4 °F -6.6 °F 3.2 °F 73% 30.02 in 10.0 mi NNW 16.1 mph 20.7 mph N/A   Clear
5:35 PM 9.1 °F -8.2 °F 2.1 °F 73% 30.03 in 10.0 mi NNW 16.1 mph - N/A   Clear
5:55 PM 8.6 °F -9.5 °F 1.9 °F 74% 30.05 in 10.0 mi NNW 17.3 mph - N/A   Clear
6:15 PM 7.7 °F -3.7 °F 1.4 °F 75% 30.05 in 10.0 mi NW 6.9 mph - N/A   Clear
6:35 PM 6.4 °F -3.9 °F 0.9 °F 78% 30.07 in 10.0 mi NW 5.8 mph - N/A   Clear
7:15 PM 5.0 °F -2.1 °F -0.2 °F 79% 30.09 in 10.0 mi NW 3.5 mph - N/A   Clear
7:35 PM 4.8 °F - -0.2 °F 80% 30.10 in 10.0 mi Calm Calm - N/A   Clear
7:55 PM 3.2 °F -6.2 °F -1.8 °F 80% 30.10 in 10.0 mi West 4.6 mph - N/A   Clear
8:15 PM 2.3 °F -8.8 °F -2.2 °F 81% 30.10 in 10.0 mi WNW 5.8 mph - N/A   Clear
8:35 PM 1.0 °F -8.7 °F -3.5 °F 81% 30.10 in 10.0 mi WNW 4.6 mph - N/A   Clear
8:55 PM 0.7 °F - -3.5 °F 83% 30.10 in 10.0 mi Calm Calm - N/A   Clear
9:15 PM -1.7 °F - -5.8 °F 83% 30.10 in 10.0 mi Calm Calm - N/A   Clear
9:35 PM -0.6 °F -8.5 °F -4.9 °F 82% 30.10 in 10.0 mi WNW 3.5 mph - N/A   Clear
9:55 PM -1.1 °F -9.1 °F -5.3 °F 83% 30.09 in 10.0 mi WNW 3.5 mph - N/A   Clear
10:15 PM -1.5 °F -9.5 °F -5.8 °F 82% 30.09 in 10.0 mi WNW 3.5 mph - N/A   Clear
10:35 PM -1.5 °F -14.7 °F -6.0 °F 81% 30.09 in 10.0 mi West 6.9 mph - N/A   Clear
10:55 PM -1.7 °F -14.9 °F -6.2 °F 81% 30.09 in 10.0 mi WNW 6.9 mph - N/A   Clear
11:15 PM -2.2 °F -16.8 °F -6.7 °F 81% 30.09 in 10.0 mi WNW 8.1 mph - N/A   Clear
11:35 PM -0.8 °F -13.9 °F -5.3 °F 81% 30.09 in 10.0 mi WNW 6.9 mph - N/A   Clear
11:55 PM -0.9 °F -14.1 °F -5.4 °F 81% 30.09 in 10.0 mi West 6.9 mph - N/A   Clear